Russell, KS

3:15 AM CDT on August 29, 2016 (GMT -0500)
Russell Municipal

Weather History for KRSL - August, 2013

Change the Weather History Date:

Tuesday, August 6, 2013

  Actual Average Record
Temperature  
Mean Temperature 77 °F -  
Max Temperature 89 °F 91 °F 107 °F (1956)
Min Temperature 66 °F 66 °F 53 °F (1990)
Cooling Degree Days 12    
Growing Degree Days 27 (Base 50)    
Moisture  
Dew Point 70 °F    
Average Humidity 87    
Maximum Humidity 100    
Minimum Humidity 55    
Precipitation  
Precipitation 0.01 in - - ()
Sea Level Pressure  
Sea Level Pressure 29.83 in    
Wind  
Wind Speed 3 mph (ENE)    
Max Wind Speed 10 mph    
Max Gust Speed -    
Visibility 5 miles    
Events Fog    
Averages and records for this station are not official NWS values.
T = Trace of Precipitation, MM = Missing Value Source: NWS Daily Summary

Daily Weather History Graph

Daily Weather History Graph

Search for Another Location

Airport or City:

Trip Planner

Search our weather history database for the weather conditions in past years. The results will help you decide how hot, cold, wet, or windy it might be!

Date:

Astronomy

Aug. 06, 2013 Rise Set
Actual Time 6:40 AM CDT 8:40 PM CDT
Civil Twilight 6:11 AM CDT 9:09 PM CDT
Nautical Twilight 5:36 AM CDT 9:45 PM CDT
Astronomical Twilight 4:57 AM CDT 10:23 PM CDT
Moon 6:33 AM CDT (8/6) 8:17 PM CDT (8/6)
Length of Visible Light 14h 57m
Length of Day
13h 59m
Waning Crescent, 0% of the Moon is Illuminated
Aug 6
Waning Crescent
Aug 6
New
Aug 14
First Quarter
Aug 20
Full
Aug 28
Last Quarter

Hourly Weather History & Observations

Time (CDT) Temp. Heat Index Dew Point Humidity Pressure Visibility Wind Dir Wind Speed Gust Speed Precip Events Conditions
12:37 AM 73.4 °F - 71.6 °F 94% 29.90 in 3.0 mi East 3.5 mph - N/A   Mostly Cloudy
12:48 AM 73.4 °F - 71.6 °F 94% 29.89 in 2.0 mi NE 3.5 mph - N/A   Overcast
12:50 AM 73.4 °F - 71.6 °F 94% 29.89 in 1.5 mi NE 3.5 mph - N/A   Overcast
12:53 AM 73.0 °F - 72.0 °F 96% 29.84 in 1.0 mi Calm Calm - N/A   Overcast
12:55 AM 73.4 °F - 71.6 °F 94% 29.89 in 0.8 mi Calm Calm - N/A   Overcast
1:10 AM 71.6 °F - 71.6 °F 100% 29.87 in 0.2 mi Calm Calm - N/A Fog Fog
1:53 AM 71.1 °F - 70.0 °F 96% 29.82 in 0.2 mi Calm Calm - N/A Fog Fog
2:43 AM 71.6 °F - 69.8 °F 94% 29.87 in 2.0 mi NE 4.6 mph - N/A   Mostly Cloudy
2:48 AM 71.6 °F - 69.8 °F 94% 29.87 in 2.0 mi ENE 4.6 mph - N/A   Scattered Clouds
2:53 AM 70.0 °F - 69.1 °F 97% 29.82 in 3.0 mi East 3.5 mph - N/A   Partly Cloudy
3:02 AM 69.8 °F - 69.8 °F 100% 29.87 in 2.5 mi ENE 4.6 mph - N/A   Partly Cloudy
3:10 AM 69.8 °F - 68.0 °F 94% 29.86 in 9.0 mi NNE 4.6 mph - N/A   Partly Cloudy
3:20 AM 69.8 °F - 69.8 °F 100% 29.86 in 1.0 mi Calm Calm - N/A   Scattered Clouds
3:26 AM 69.8 °F - 69.8 °F 100% 29.86 in 4.0 mi Calm Calm - N/A   Partly Cloudy
3:53 AM 69.1 °F - 66.9 °F 93% 29.81 in 10.0 mi SE 4.6 mph - N/A   Clear
4:53 AM 68.0 °F - 66.9 °F 96% 29.80 in 8.0 mi SW 3.5 mph - N/A   Clear
5:05 AM 68.0 °F - 66.2 °F 94% 29.85 in 1.8 mi Calm Calm - N/A   Clear
5:13 AM 68.0 °F - 66.2 °F 94% 29.85 in 0.8 mi Calm Calm - 0.01 in   Mist
5:53 AM 68.0 °F - 66.9 °F 96% 29.81 in 0.8 mi NNE 4.6 mph - 0.01 in   Mist
6:07 AM 66.2 °F - 66.2 °F 100% 29.86 in 1.2 mi NNE 4.6 mph - N/A   Scattered Clouds
6:10 AM 66.2 °F - 66.2 °F 100% 29.86 in 3.0 mi North 3.5 mph - N/A   Partly Cloudy
6:18 AM 66.2 °F - 66.2 °F 100% 29.86 in 2.0 mi North 4.6 mph - N/A   Mostly Cloudy
6:21 AM 68.0 °F - 66.2 °F 94% 29.86 in 0.8 mi North 3.5 mph - N/A   Mist
6:53 AM 66.9 °F - 66.0 °F 97% 29.81 in 0.2 mi Calm Calm - N/A Fog Fog
7:03 AM 66.2 °F - 66.2 °F 100% 29.85 in 1.2 mi Calm Calm - N/A   Scattered Clouds
7:13 AM 68.0 °F - 66.2 °F 94% 29.85 in 3.0 mi Calm Calm - N/A   Partly Cloudy
7:53 AM 70.0 °F - 69.1 °F 97% 29.82 in 7.0 mi South 3.5 mph - N/A   Clear
8:53 AM 73.9 °F - 71.1 °F 91% 29.82 in 10.0 mi South 4.6 mph - N/A   Clear
9:53 AM 78.1 °F - 71.1 °F 79% 29.82 in 10.0 mi ESE 3.5 mph - N/A   Clear
10:53 AM 84.0 °F 88.4 °F 70.0 °F 63% 29.83 in 10.0 mi Calm Calm - N/A   Clear
11:53 AM 82.9 °F 88.0 °F 72.0 °F 69% 29.84 in 10.0 mi ENE 9.2 mph - N/A   Partly Cloudy
12:53 PM 84.9 °F 90.7 °F 72.0 °F 65% 29.83 in 10.0 mi ENE 8.1 mph - N/A   Clear
1:53 PM 86.0 °F 90.7 °F 70.0 °F 59% 29.80 in 10.0 mi SE 8.1 mph - N/A   Clear
2:53 PM 87.1 °F 91.3 °F 69.1 °F 55% 29.79 in 10.0 mi ESE 5.8 mph - N/A   Clear
3:53 PM 88.0 °F 93.8 °F 71.1 °F 57% 29.78 in 10.0 mi SE 6.9 mph - N/A   Clear
4:53 PM 88.0 °F 93.8 °F 71.1 °F 57% 29.77 in 10.0 mi SE 6.9 mph - N/A   Clear
5:53 PM 87.1 °F 92.8 °F 71.1 °F 59% 29.77 in 10.0 mi ESE 5.8 mph - N/A   Clear
6:53 PM 84.0 °F 91.2 °F 73.9 °F 72% 29.79 in 10.0 mi NNE 5.8 mph - N/A   Clear
7:53 PM 82.0 °F 87.9 °F 73.9 °F 76% 29.78 in 10.0 mi ENE 5.8 mph - N/A   Clear
8:53 PM 80.1 °F 84.2 °F 73.0 °F 79% 29.78 in 10.0 mi East 6.9 mph - N/A   Clear
9:53 PM 79.0 °F - 72.0 °F 79% 29.77 in 10.0 mi North 10.4 mph - N/A   Clear
10:53 PM 78.1 °F - 73.0 °F 84% 29.81 in 10.0 mi Calm Calm - N/A   Clear
11:53 PM 75.9 °F - 72.0 °F 87% 29.81 in 10.0 mi ENE 5.8 mph - N/A   Clear